CZEM

Eastmain River Airport

ICAO Code CZEM
IATA Code ZEM
Name Eastmain River Airport
Location Eastmain River, Quebec, CA
Elevation 24 Feet / 7.3 Meters
Latitude 52.22638889
Longitude -78.52250000
METAR CZEM 011600Z 30008G15KT 280V340 15SM OVC005 10/08 A2997 RMK SC8 LAST STFD OBS/NEXT041300 UTC SLP150
Extra information Display Charts and CFS
Display NOTAMS
Runway Length Width Surface Elevation
02 3512 ft 100 ft GRAVEL 21 ft
20 3512 ft 100 ft GRAVEL 24 ft